EW9066 Weather Reports


time (UTC)temp
C
wind
direction
speed
KPH
gust
KPH
rain 1hr
cm
rain 24hr
cm
rain mn
cm
humidity
%
barometer
mb
20260502234530 21 89 3.2 11.3 0.00 0.00 0.00 21 1010.8
20260502233029 20 69 3.2 16.1 0.00 0.00 0.00 22 1010.9
20260502231527 20 84 4.8 12.9 0.00 0.00 0.00 22 1011.1
20260502230027 20 79 8.0 19.3 0.00 0.00 0.00 22 1011.2
20260502224526 20 108 0.0 11.3 0.00 0.00 0.00 22 1011.4
20260502223027 20 92 4.8 14.5 0.00 0.00 0.00 23 1011.6
20260502221527 20 84 4.8 12.9 0.00 0.00 0.00 23 1011.8
20260502220028 20 82 6.4 14.5 0.00 0.00 0.00 23 1012.0
20260502214525 20 77 3.2 17.7 0.00 0.00 0.00 25 1012.3
20260502213029 19 94 3.2 14.5 0.00 0.00 0.00 26 1012.4
20260502211525 21 347 8.0 12.9 0.00 0.00 0.00 23 1012.5
20260502210024 19 83 0.0 8.0 0.00 0.00 0.00 25 1012.8
20260502204527 20 53 1.6 17.7 0.00 0.00 0.00 25 1013.1
20260502203025 19 68 3.2 14.5 0.00 0.00 0.00 25 1013.1
20260502201524 20 66 6.4 14.5 0.00 0.00 0.00 25 1013.2
20260502200024 19 5 6.4 14.5 0.00 0.00 0.00 26 1013.4
20260502194524 18 82 6.4 16.1 0.00 0.00 0.00 27 1013.6
20260502193023 18 346 11.3 17.7 0.00 0.00 0.00 27 1013.7
20260502191522 18 78 1.6 11.3 0.00 0.00 0.00 27 1013.8
20260502190023 17 68 4.8 17.7 0.00 0.00 0.00 28 1014.0
20260502184528 17 84 3.2 16.1 0.00 0.00 0.00 28 1014.2
20260502183022 17 63 9.7 22.5 0.00 0.00 0.00 28 1014.3
20260502181521 17 87 9.7 22.5 0.00 0.00 0.00 28 1014.6
20260502163022 15 61 6.4 19.3 0.00 0.00 0.00 34 1014.9
20260502161515 15 63 11.3 22.5 0.00 0.00 0.00 34 1015.0
20260502151509 13 38 1.6 9.7 0.00 0.00 0.00 37 1015.2
20260502123001 10 167 8.0 16.1 0.00 0.00 0.00 52 1014.1
20260502121559 10 214 6.4 17.7 0.00 0.00 0.00 51 1014.0
20260502114558 10 342 12.9 41.8 0.00 0.00 0.00 50 1013.9
20260502113057 10 328 14.5 22.5 0.00 0.00 0.00 52 1013.9
20260502111556 9 180 0.0 4.8 0.00 0.00 0.00 51 1013.7
20260502110054 7 180 4.8 12.9 0.00 0.00 0.00 50 1013.9
20260502104552 3 106 1.6 6.4 0.00 0.00 0.00 58 1013.8
20260502103050 3 70 1.6 16.1 0.00 0.00 0.00 61 1013.8
20260502101548 5 178 0.0 0.0 0.00 0.00 0.00 52 1012.8
20260502071533 8 178 4.8 8.0 0.00 0.00 0.00 37 1012.3
20260502070034 8 178 3.2 8.0 0.00 0.00 0.00 35 1012.2
20260502064532 9 178 0.0 6.4 0.00 0.00 0.00 35 1012.3
20260502063027 9 178 1.6 6.4 0.00 0.00 0.00 33 1012.1
20260502061525 10 178 3.2 9.7 0.00 0.00 0.00 30 1012.0
20260502060022 9 177 0.0 3.2 0.00 0.00 0.00 32 1012.0
20260502054520 11 177 4.8 9.7 0.00 0.00 0.00 28 1011.9
20260502053019 10 177 3.2 8.0 0.00 0.00 0.00 28 1011.7
20260502051517 10 177 0.0 3.2 0.00 0.00 0.00 29 1011.8
20260502050015 11 177 0.0 4.8 0.00 0.00 0.00 28 1011.8
20260502044514 11 177 3.2 9.7 0.00 0.00 0.00 28 1011.7
20260502043017 11 178 3.2 9.7 0.00 0.00 0.00 27 1011.6
20260502041517 11 178 0.0 4.8 0.00 0.00 0.00 27 1011.6
20260502040009 12 178 0.0 4.8 0.00 0.00 0.00 26 1011.5
20260502034509 13 178 0.0 9.7 0.00 0.00 0.00 24 1011.5
20260502033006 13 178 4.8 11.3 0.00 0.00 0.00 24 1011.1
20260502031502 13 176 4.8 9.7 0.00 0.00 0.00 26 1010.9
20260502030058 15 176 1.6 6.4 0.00 0.00 0.00 23 1010.8
20260502024606 17 176 8.0 17.7 0.00 0.00 0.00 20 1010.5
20260502023058 17 172 8.0 12.9 0.00 0.00 0.00 18 1010.3
20260502021555 16 169 8.0 11.3 0.00 0.00 0.00 23 1010.2
20260502020052 20 168 3.2 6.4 0.00 0.00 0.00 19 1010.2
20260502014550 22 168 3.2 11.3 0.00 0.00 0.00 15 1010.2
20260502013044 23 172 3.2 8.0 0.00 0.00 0.00 14 1010.2
20260502011544 23 172 3.2 9.7 0.00 0.00 0.00 14 1010.2
20260502010045 23 171 4.8 11.3 0.00 0.00 0.00 14 1010.3
20260502004541 23 173 3.2 12.9 0.00 0.00 0.00 14 1010.5
20260502003039 23 175 4.8 8.0 0.00 0.00 0.00 15 1010.7
20260502001541 24 174 4.8 17.7 0.00 0.00 0.00 15 1010.8
20260502000038 23 155 3.2 17.7 0.00 0.00 0.00 13 1010.8